Estación de San José

Ultimos registro cada 15 minutos 34
Estación Fecha / Hora Temperatura Humedad Lluvia Velocidad Dirección Radiación Presion
34 San José 09-05-2026 08:15 5,9 92 0 0 161 28 1020,8
33 San José 09-05-2026 08:00 6,1 92 0 0 170 19 1020,7
32 San José 09-05-2026 07:45 6,2 92 0 0 146 9 1020,7
31 San José 09-05-2026 07:30 6,4 92 0 0 219 0 1020,6
30 San José 09-05-2026 07:15 6,7 92 0 0 219 0 1020,7
29 San José 09-05-2026 07:00 6,9 92 0 0 219 0 1020,6
28 San José 09-05-2026 06:45 7,2 92 0 0 216 0 1020,8
27 San José 09-05-2026 06:30 7,3 91 0 0 216 0 1020,7
26 San José 09-05-2026 06:15 7,6 92 0 0 217 0 1020,9
25 San José 09-05-2026 06:00 7,8 91 0 0 218 0 1020,9
24 San José 09-05-2026 05:45 7,9 92 0 0 164 0 1021
23 San José 09-05-2026 05:30 8,1 92 0 0 164 0 1021
22 San José 09-05-2026 05:15 8,2 91 0 0 216 0 1020,9
21 San José 09-05-2026 05:00 8,3 92 0 0 220 0 1020,9
20 San José 09-05-2026 04:45 8,3 92 0 0 215 0 1020,8
19 San José 09-05-2026 04:30 8,4 92 0 0 214 0 1020,8
18 San José 09-05-2026 04:15 8,4 92 0 0 214 0 1021
17 San José 09-05-2026 04:00 8,4 92 0 0 214 0 1021
16 San José 09-05-2026 03:45 8,6 93 0 0 206 0 1021,3
15 San José 09-05-2026 03:30 8,7 93 0 0 204 0 1021,3
14 San José 09-05-2026 03:15 8,8 93 0 0 207 0 1021,4
13 San José 09-05-2026 03:00 8,9 93 0 0 229 0 1021,6
12 San José 09-05-2026 02:45 9 93 0 0 227 0 1021,6
11 San José 09-05-2026 02:30 9,2 93 0 0 192 0 1021,7
10 San José 09-05-2026 02:15 9,3 93 0 0 192 0 1021,6
9 San José 09-05-2026 02:00 9,4 93 0 0 192 0 1022
8 San José 09-05-2026 01:45 9,6 93 0 0 214 0 1021,9
7 San José 09-05-2026 01:30 9,7 93 0 0 214 0 1021,9
6 San José 09-05-2026 01:15 9,8 93 0 0 216 0 1021,8
5 San José 09-05-2026 01:00 9,8 93 0 0 215 0 1022
4 San José 09-05-2026 00:45 9,9 93 0 0 228 0 1022
3 San José 09-05-2026 00:30 9,9 93 0 0 185 0 1021,9
2 San José 09-05-2026 00:15 10 93 0 0 185 0 1021,8
1 San José 09-05-2026 00:00 9,9 93 0 0 185 0 1021,9